Showing default

RISAT 1, 38248

Orbit data source: Space-Track

RISAT 1, 38248 is a payload satellite owned by ISRO (IN) in SSO that was launched on Thu, 26 Apr 2012 UTC via a PSLV-XL launch vehicle from the Sirharikota (SRI). Payload-class satellites include a variety of spacecraft equipped with specific instruments for various scientific and technological missions. These include communications satellites like Starlink; space stations such as the ISS; scientific satellites like the Hubble; Earth observation satellites from companies like Planet Labs, Umbra, and HawkEye 360; GPS; miniature CubeSats for education and research; and military/defense satellites.

Not visible in the next 10 days
Identifier
38248, 2012-017A
Orbit
SSO
Country
Flag of ININ / IND
Related business
Manufacturer
ISAC/HAL
Mission
Non-operational Civil Radar Imaging
Bus & Motor
IRS, Unknown motor
Mass
1,858 kg wet, 1,805 kg dry
Launch date (UTC)
2012-04-26 (13 years ago)
Launch vehicle
PSLV-XL
Launch site
Sirharikota (SRI)
Object type
Payload
Rocket body
Debris
Shape & HBR
Box + Hex Box + 3 Pan, 5.8 m
Radar Cross Section
17.625 m², Large (>1 m²)

Expand to show TLE details & history
Last TLE update: 19 hours ago

TLE from 19 hours ago
0 RISAT 1
1 38248U 12017A   25260.01873459  .00021298  00000-0  45826-3 0  9998
2 38248  97.4843 291.1887 0003662  79.1410 281.0250 15.44655672739638
Epoch: 2025-09-17T00:26Z
TLE epoch observation values (Epoch: 2025-09-17T00:26:58.668Z)
Latitude
-0.00005°
Longitude
-71.75645°
Altitude
435.035 km
Speed
7.651 km/s
True Right ascension
19h 24m 45s
True Declination
0° 00' 00"
Sunlit
Object was in full shadow at epoch
Visualization orbit readout
Latitude
Unknown
Longitude
Unknown
Altitude
Unknown
Speed
Unknown
Apparent Right ascension
Unknown
Apparent Declination
Unknown
Sunlit
N/A
Visualization observer readout
Local Sidereal Time
12:18:28
Azimuth
Unknown
Elevation
Unknown
Doppler factor
Unknown
Orbital elements
Apogee altitude
431.819 km
Perigee altitude
426.834 km
Semi-major axis
6,807.463 km
Eccentricity
0.00037
Inclination
97.4843°
RAAN
291.1887°
Arg. of periapsis
79.141°
True anomaly
280.98381°
Mean anomaly
281.025°
Eccentric anomaly
281.0044°
Mean motion
3.86425 °/min
Orbital period
93.16 mins
BSTAR
0.00045826
Loading maneuver chart data...
Computing Atmospheric mass density...
Loading historical data...
Loading historical data...
Loading historical data...
Loading historical data...
Loading historical data...
Loading historical data...
Loading historical data...
Other satellites on launch #17 in the year 2012 (2012-04-26 UTC)

Documentation

Showing up to 5 results
|